RAZAKSAT

Satellite information

Favourite Embed

Satellite Type and Status

PAYLOADIN ORBIT

Key statistics

Satellite RAZAKSAT at a glance.

Uptime

5848

Days in orbit

Revolutions

≈ 14.7

Per day

Orbit

LEO

Low Earth Orbit

Inclination

9.0

Latest

Satellite identification and parameters

Extended collection of information and parameters for RAZAKSAT.

Object identification

Identified? True

Debris? False

Object name: RAZAKSAT

International designator: 2009-037A

Object number (NORAD): 35578

Object ID (CCSDS): 35578

Country: MALAYSIA (MALA)

Current information (Y/N): Y

RCS size: MEDIUM

Orbital parameters

Period: 97.973 minutes

Inclination: 8.9882 deg

SMA: 7039.871 km

Apoapsis: 672.632 km

Periapsis: 650.84 km

RAAN: 359.5875 deg

Eccentricy: 0.0015477

Argument of periapsis: 158.6618 deg

Mean anomaly: 201.4219 deg

Mean motion: 14.69791435 rev/day

Mean motion (dot): 0.00000963 rev/day2

B* drag term: 0.000064288 1/REarth

Two-line elements (TLE)

Creation date: July 18, 2025, 2:44 a.m.

Reference frame: TEME

Reference center: EARTH

Epoch: July 17, 2025, 6:15 p.m. UTC

TLE line 0: 0 RAZAKSAT

TLE line 1: 1 35578U 09037A 25198.76069909 .00000963 00000-0 64288-4 0 9998

TLE line 2: 2 35578 8.9882 359.5875 0015477 158.6618 201.4219 14.69791435859602

Live tracking on map

Real-time ground track for satellite RAZAKSAT.

In-orbit conjunctions

There are no conjunctions computed for RAZAKSAT, at the moment. Check back to stay up to date, as we update our databases every day.

Go to all conjunctions

Associated space launch

RazakSAT is a Malaysian Earth observation satellite carrying a high-resolution camera. It was the first and only operational satellite to be put in orbit by SpaceX's Falcon 1.

RAZAKSAT was lifted into orbit during the mission ‘Falcon 1 | RazakSAT’, on board a Falcon 1 space rocket.

The launch took place on July 14, 2009, 3:36 a.m. from Omelek Island.

For more information about the launch, click the button.

Launch to space Falcon 1 | RazakSAT
Falcon 1 | RazakSAT

Agency: N/A

Status: Launch Successful

Launch date: July 14, 2009, 3:36 a.m. UTC

Rocket: Falcon 1

Launch pad: Omelek Island

Location: Ronald Reagan Ballistic Missile Defense Test Site, Kwajalein Atoll, Marshall Islands

...

Latest news about this satellite

There are no fresh news available about this satellite. Check back as we update our databases every day.


Newsletter sign-up

Weekly statistics, charts and insights to help you stay on top of the space industry.